Вернуться в каталог

COSMOS 1639

АктивенВоенныеLEO
NORAD 15621·PAYLOAD·🇷🇺 Russia

Запущен Mar 21, 1985 с Plesetsk Cosmodrome

Loading…

Ближайшие Пролёты (ближайшие 24 часа)

TLE

СвежийSource: Space-Track

Эпоха: Sep 14, 2026, 07:24 UTC

1 15621U 85023E   26257.30860294 -.00000019  00000-0 -20447-4 0  9990
2 15621  74.0548 209.0114 0025807 300.5745 212.9410 12.51059576894650

Отслеживайте COSMOS 1639 в реальном времени с AllMySat

Download on the App Store